Location: Claflin County Park
(44.8478°N, 87.5507°W)
Time: 16:31:26
(UTC+00:00)

SL-16 R/B - Pass Details

Date: 10 December 2025
Orbit: 841 x 844 km, 71.0° (Epoch: 22 January)

Event Time Altitude Azimuth Distance (km) Brightness Sun altitude
Exits shadow 11:48:41 18° 316° (NW) 1,947 3.6 -15.0°
Maximum altitude 11:52:30 44° 253° (WSW) 1,154 2.6 -14.4°
Drops below altitude 10° 11:57:49 10° 182° (S) 2,457 4.8 -13.5°
Sets 12:00:20 0° 176° (S) 3,387 5.7 -13.1°
